Regional Weather Roundup
Issued by NWS

Home | Current Version | Previous Version | Text Only | Print | Product List | Glossary On
Versions: 1 2 3 4 5 6 7 8 9 10 11 12 13 14 15 16 17 18 19 20 21 22 23 24 25 26 27 28 29 30 31 32 33 34 35 36 37 38 39 40 41 42 43 44 45 46 47 48 49 50
000
ASUS44 KFWD 232301
RWRTX
NORTH TEXAS HOURLY WEATHER ROUNDUP
NATIONAL WEATHER SERVICE FORT WORTH TX
500 PM CST TUE JAN 23 2018

NOTE: "FAIR" INDICATES FEW OR NO CLOUDS BELOW 12,000 FEET WITH NO
SIGNIFICANT WEATHER AND/OR OBSTRUCTIONS TO VISIBILITY.

TXZ118-119-240000-
DALLAS/FORT WORTH METROPLEX

CITY           SKY/WX    TMP DP  RH WIND       PRES   REMARKS
DFW AIRPORT    FAIR      60  16  18 N9        30.25R
DALLAS LOVE    FAIR      59  18  20 N8        30.27R
FTW MEACHAM    FAIR      60  14  16 NW8       30.26R
DAL-EXECUTIVE  FAIR      58  16  19 N5        30.26R
FTW-ALLIANCE   FAIR      59  15  18 NW8       30.26R
FTW-NAS-JRB    FAIR      59  14  17 N8        30.27R
FTW-SPINKS     CLEAR     57  12  17 N9        30.28R
ARLINGTON      FAIR      58  13  17 N9        30.27R
GRAND PRAIRIE  CLEAR     57  14  18 N9        30.27S
MESQUITE       CLEAR     55  18  22 N6        30.28R
LANCASTER      FAIR      57  17  20 N8        30.28R
$$

TXZ091>094-102>105-117-120-121-131>134-240000-
NORTH CENTRAL TEXAS

CITY           SKY/WX    TMP DP  RH WIND       PRES   REMARKS
SHRMAN/DENISON NOT AVBL
GAINESVILLE    FAIR      55  15  20 NW6       30.30R
BOWIE          FAIR      54  16  22 NW7       30.27S
BRIDGEPORT     FAIR      57  15  19 N8        30.29R
DECATUR        FAIR      56  13  18 NW6       30.26R
DENTON         FAIR      58  13  17 N10       30.27R
MCKINNEY       FAIR      56  19  23 NW10      30.27R
BONHAM         FAIR      53  20  27 NW7       30.27S
ROCKWALL       FAIR      55  22  28 N5        30.28R
TERRELL        FAIR      57  18  21 NW5       30.28R
WAXAHACHIE     FAIR      57  21  24 NW6       30.28R
CLEBURNE       FAIR      59  14  17 N10       30.28R
GRANBURY       FAIR      61  15  17 N7        30.27S
$$

TXZ083>090-098>101-113>116-127>130-139>142-154-155-240000-
WESTERN NORTH TEXAS

CITY           SKY/WX    TMP DP  RH WIND       PRES   REMARKS
WICHITA FALLS  FAIR      55  14  19 NW7       30.28R
WF-KICKAPOO    FAIR      56  14  18 N7        30.30S
VERNON         FAIR      57  -4   8 NW5       30.29R
ABILENE        FAIR      59   9  13 N5        30.25R
ABILENE-DYESS  FAIR      59  11  15 NE6       30.24R
BRECKENRIDGE   FAIR      60  11  14 NE3       30.27R
CISCO          FAIR      59   9  13 N7        30.26R
RANGER         FAIR      57  14  18 N8        30.26R
MINERAL WELLS  FAIR      60   9  13 N9        30.25R
STEPHENVILLE   FAIR      60   8  12 NW7       30.28R
COMANCHE       FAIR      60  14  16 N7        30.26R
BROWNWOOD      FAIR      63   3   9 NE6       30.25R
COLEMAN          N/A     62  10  13 CALM      30.25
$$

TXZ143>147-156>162-174-175-240000-
CENTRAL TEXAS

CITY           SKY/WX    TMP DP  RH WIND       PRES   REMARKS
WACO           FAIR      61  15  16 N9        30.26R
WACO-TSTC      CLEAR     63  14  15 N7        30.26R
WACO-MCGREGOR  FAIR      60  18  19 N10       30.26R
HILLSBORO      FAIR      60  17  18 N7        30.26R
CORSICANA      FAIR      58  19  22 NW9       30.28R
MEXIA          FAIR      58  18  20 N5        30.26R
HEARNE         FAIR      60  22  23 NW9       30.27R
CAMERON        FAIR      61  21  21 NE5       30.26R
TEMPLE         FAIR      62  17  17 N7        30.26R
KILLEEN        FAIR      62   9  12 NE8       30.23R
KILLEEN-SKYLRK FAIR      62  16  16 NE7       30.25R
FORT HOOD      FAIR      62  12  14 NE7       30.21R
GATESVILLE     FAIR      63  12  14 N3        30.27R
LAMPASAS       FAIR      62  10  13 NE6       30.24R
$$

TXZ095>097-106>112-122>126-135>138-148>153-164>167-240000-
EAST TEXAS

CITY           SKY/WX    TMP DP  RH WIND       PRES   REMARKS
PARIS          FAIR      52  23  32 NW8       30.27R
SULPHUR SPRNGS FAIR      54  24  31 N8        30.29R
MOUNT PLEASANT FAIR      54  24  30 NW8       30.27S
GILMER         FAIR      55  21  26 NW5       30.25R
MINEOLA        FAIR      55  21  26 NW6       30.26S
TYLER          FAIR      58  19  22 N8        30.25R
LONGVIEW       FAIR      58  23  26 N7        30.23R
MARSHALL       FAIR      55  15  21 N9        30.26S
ATHENS         FAIR      54  18  24 N6        30.26R
PALESTINE      FAIR      58  21  23 NW5       30.27R
JACKSONVILLE   FAIR      57  21  24 NW7       30.27R
CENTER         FAIR      56  17  21 N8        30.25R
NACOGDOCHES    FAIR      58  20  22 NW5       30.25R
LUFKIN         FAIR      60  22  23 N5        30.24R
$$

SUPPLEMENTAL OBSERVATIONS (NWS FORT WORTH AREA)

CITY           SKY/WX    TMP DP  RH WIND       PRES   REMARKS
$$

SUPPLEMENTAL OBSERVATIONS (NWS NORMAN AREA)

CITY           SKY/WX    TMP DP  RH WIND       PRES   REMARKS
GOODLETT         N/A     57   7  13 W5        30.28R
ODELL            N/A     57  10  15 NW5       30.30R
CROWELL          N/A     57  11  16 N5        30.29R
KNOX CITY        N/A     56   8  14 E2        30.28R
SEYMOUR          N/A     57   9  15 NE3       30.29R
$$

SUPPLEMENTAL OBSERVATIONS (NWS SAN ANGELO AREA)

CITY           SKY/WX    TMP DP  RH WIND       PRES   REMARKS
WEINERT          N/A     55  10  16 NE3       30.29R
HASKELL          N/A     56   7  13 NE3       30.28R
THROCKMORTON     N/A     59  11  15 NW2       30.28R
STAMFORD         N/A     58  11  15 NE3       30.27S
CLYDE            N/A     58  10  15 N7        30.26S
$$

SUPPLEMENTAL OBSERVATIONS (NWS SHREVEPORT AREA)

CITY           SKY/WX    TMP DP  RH WIND       PRES   REMARKS
$$

SUPPLEMENTAL OBSERVATIONS ARE A COLLECTION OF AUTOMATED INSTRUMENTS
THAT ARE MAINTAINED BY A VARIETY OF FEDERAL AND STATE AGENCIES.
CERTAIN ELEMENTS...SUCH AS HUMIDITY VALUES AND SUSTAINED WIND
SPEEDS...MAY BE APPROXIMATED.





USA.gov is the U.S. government's official web portal to all federal, state and local government web resources and services.